Location: ???????
(54.6339°N, 39.4245°E)
Time: 07:02:45
(UTC+00:00)

Cosmos 1934 Rocket - Pass Details

Date: 19 May 2025
Orbit: 938 x 997 km, 83.0° (Epoch: 15 June)

Event Time Altitude Azimuth Distance (km) Brightness Sun altitude
Rises 19:37:29 0° 349° (N) 3,663 8.8 -12.3°
Reaches altitude 10° 19:40:02 10° 353° (N) 2,721 7.6 -12.5°
Maximum altitude 19:46:13 64° 75° (ENE) 1,085 4.2 -12.8°
Enters shadow 19:51:03 18° 153° (SSE) 2,233 5.2 -13.1°
